Tracking 21676 objects as of 29-Oct-2020
HD Live streaming from Space Station
objects crossing your sky now

COSMOS 982

Track COSMOS 982 now!
10-day predictions
COSMOS 982 is classified as:


NORAD ID: 10589
Int'l Code: 1978-005G
Perigee: 1,471.0 km
Apogee: 1,521.8 km
Inclination: 74.0 °
Period: 115.7 minutes
Semi major axis: 7867 km
RCS: 0.7047 m2 (medium)
Launch date: January 10, 1978
Source: Commonwealth of Independent States (former USSR) (CIS)
Launch site: PLESETSK MISSILE AND SPACE COMPLEX (PKMTR)
aabbcc
Your satellite tracking list
Your tracking list is empty




NASA's NSSDC Master Catalog

Two Line Element Set (TLE):
1 10589U 78005G   20302.61349630 -.00000027 +00000-0 -83721-4 0  9998
2 10589 074.0335 051.1740 0032298 081.3028 289.3214 12.44101434943695
Source of the keplerian elements: AFSPC